GW3114 Weather Reports


Display with metric or nautical units.
time (UTC)temp
F
wind
direction
speed
MPH
gust
MPH
rain 1hr
in
rain 24hr
in
rain mn
in
humidity
%
barometer
mb
20260901105549 72 219 0.0 0.0 0.00 0.00 0.00 99 1017.2
20260901104544 72 223 0.0 0.0 0.00 0.00 0.00 99 1017.0
20260901103539 72 220 0.0 0.0 0.00 0.00 0.00 99 1017.2
20260901102535 72 218 0.0 0.0 0.00 0.00 0.00 99 1017.0
20260901101531 72 228 0.0 0.0 0.00 0.00 0.00 99 1017.0
20260901100531 72 225 0.0 0.0 0.00 0.00 0.00 99 1016.8
20260901095529 72 216 0.0 0.0 0.00 0.00 0.00 99 1016.9
20260901094527 72 230 0.0 0.0 0.00 0.00 0.00 99 1016.9
20260901093527 73 219 0.0 0.0 0.00 0.00 0.00 99 1017.0
20260901092524 73 215 0.0 0.0 0.00 0.00 0.00 99 1017.2
20260901091521 73 215 0.0 0.0 0.00 0.00 0.00 99 1017.0
20260901090521 73 221 0.0 0.0 0.00 0.00 0.00 98 1017.4
20260901085518 74 218 0.0 0.0 0.00 0.00 0.00 97 1017.1
20260901084516 75 211 0.0 0.0 0.00 0.00 0.00 97 1016.8
20260901083512 75 220 0.0 0.0 0.00 0.00 0.00 96 1017.2
20260901082511 75 214 0.0 0.0 0.00 0.00 0.00 96 1017.3
20260901081507 75 195 0.0 0.0 0.00 0.00 0.00 97 1017.3
20260901080507 75 177 0.0 0.0 0.00 0.00 0.00 98 1017.1
20260901075503 74 216 0.0 0.0 0.00 0.00 0.00 99 1017.2
20260901074502 74 219 0.0 0.0 0.00 0.00 0.00 99 1017.1
20260901073500 74 208 0.0 0.0 0.00 0.00 0.00 99 1017.4
20260901072455 74 210 0.0 0.0 0.00 0.00 0.00 99 1017.5
20260901071455 73 214 0.0 0.0 0.00 0.00 0.00 99 1017.7
20260901070450 72 207 0.0 0.0 0.00 0.00 0.00 99 1017.5
20260901065445 73 210 0.0 0.0 0.00 0.00 0.00 99 1017.6
20260901064442 73 210 0.0 0.0 0.00 0.00 0.00 99 1017.8
20260901063441 72 209 0.0 0.0 0.00 0.00 0.00 99 1017.8
20260901062438 72 203 0.0 0.0 0.00 0.00 0.00 99 1017.9
20260901061436 72 209 0.0 0.0 0.00 0.00 0.00 99 1018.0
20260901060432 72 211 0.0 0.0 0.00 0.00 0.00 99 1017.8
20260901055428 72 211 0.0 0.0 0.00 0.00 0.00 99 1017.8
20260901054427 72 213 0.0 0.0 0.00 0.00 0.00 99 1018.0
20260901053424 72 216 0.0 0.0 0.00 0.00 0.00 99 1017.9
20260901052420 72 214 0.0 0.0 0.00 0.00 0.00 99 1018.0
20260901051415 73 218 0.0 0.0 0.00 0.00 0.00 99 1018.2
20260901050411 73 219 0.0 0.0 0.00 0.00 0.00 99 1018.3
20260901045411 73 225 0.0 0.0 0.00 0.00 0.00 99 1018.4
20260901044408 73 223 0.0 0.0 0.00 0.00 0.00 99 1018.4
20260901043406 73 217 0.0 0.0 0.00 0.00 0.00 99 1018.4
20260901042407 73 219 0.0 0.0 0.00 0.00 0.00 99 1018.7
20260901041402 73 216 0.0 0.0 0.00 0.00 0.00 99 1018.6
20260901040401 72 219 0.0 0.0 0.00 0.00 0.00 99 1018.6
20260901035400 72 210 0.0 0.0 0.00 0.00 0.00 99 1018.6
20260901034359 72 211 0.0 0.0 0.00 0.00 0.00 99 1019.0
20260901033400 73 207 0.0 0.0 0.00 0.00 0.00 99 1018.7
20260901032358 73 214 0.0 0.0 0.00 0.00 0.00 99 1018.7
20260901031355 73 223 0.0 0.0 0.00 0.00 0.00 99 1018.9
20260901030350 73 220 0.0 0.0 0.00 0.00 0.00 99 1018.8
20260901025349 73 223 0.0 0.0 0.00 0.00 0.00 99 1018.9
20260901024349 73 223 0.0 0.0 0.00 0.00 0.00 99 1018.8
20260901023349 73 213 0.0 0.0 0.00 0.00 0.00 99 1018.8
20260901022346 73 217 0.0 0.0 0.00 0.00 0.00 99 1018.9
20260901021343 73 223 0.0 0.0 0.00 0.00 0.00 99 1018.7
20260901020338 73 229 0.0 0.0 0.00 0.00 0.00 99 1018.6
20260901015335 73 220 0.0 0.0 0.00 0.00 0.00 99 1018.6
20260901014330 74 224 0.0 0.0 0.00 0.00 0.00 99 1018.6
20260901013326 74 223 0.0 0.0 0.00 0.00 0.00 99 1018.6
20260901012322 74 223 0.0 0.0 0.00 0.00 0.00 99 1018.6
20260901011320 75 223 0.0 0.0 0.00 0.00 0.00 99 1018.3
20260901010319 75 213 0.0 0.0 0.00 0.00 0.00 99 1018.7
20260901005314 75 222 0.0 0.0 0.00 0.00 0.00 99 1018.4
20260901004314 76 224 0.0 0.0 0.00 0.00 0.00 98 1018.3
20260901003309 76 229 0.0 0.0 0.00 0.00 0.00 98 1018.1
20260901002309 77 222 0.0 0.0 0.00 0.00 0.00 97 1018.2
20260901001305 77 219 0.0 0.0 0.00 0.00 0.00 97 1018.2
20260901000300 77 214 0.0 0.0 0.00 0.00 0.00 97 1018.3
20260831235301 78 221 0.0 0.0 0.00 0.00 0.00 95 1018.2
20260831234300 78 226 0.0 0.0 0.00 0.00 0.00 94 1018.1
20260831233257 79 226 0.0 0.0 0.00 0.00 0.00 93 1018.2
20260831232255 80 212 0.0 0.0 0.00 0.00 0.00 92 1018.1
20260831231253 81 220 0.0 0.0 0.00 0.00 0.00 90 1018.1
20260831230248 81 216 0.0 0.0 0.00 0.00 0.00 89 1018.2
20260831225243 81 213 0.0 0.0 0.00 0.00 0.00 88 1018.3
20260831224239 81 206 0.0 0.0 0.00 0.00 0.00 89 1018.5
20260831223236 82 210 0.0 0.0 0.00 0.00 0.00 88 1018.4
20260831222233 82 203 0.0 0.0 0.00 0.00 0.00 88 1018.7
20260831221230 81 211 0.0 0.0 0.00 0.00 0.00 87 1018.9
20260831220226 82 214 0.0 0.0 0.00 0.00 0.00 87 1018.8
20260831215222 83 212 0.0 0.0 0.00 0.00 0.00 84 1018.8
20260831214222 84 227 0.0 0.0 0.00 0.00 0.00 81 1018.7
20260831213219 84 221 0.0 0.0 0.00 0.00 0.00 81 1018.8
20260831212217 84 224 0.0 0.0 0.00 0.00 0.00 80 1019.0
20260831211216 84 218 0.0 0.0 0.00 0.00 0.00 82 1018.8
20260831210213 83 229 0.0 0.0 0.00 0.00 0.00 83 1018.9
20260831205208 83 239 0.0 0.0 0.00 0.00 0.00 82 1018.8
20260831204207 84 222 0.0 1.0 0.00 0.00 0.00 82 1019.1
20260831203207 84 233 0.0 1.0 0.00 0.00 0.00 83 1018.9
20260831202206 84 259 0.0 0.0 0.00 0.00 0.00 80 1018.8
20260831201206 85 205 0.0 0.0 0.00 0.00 0.00 80 1019.0
20260831200202 85 234 1.0 1.0 0.00 0.00 0.00 79 1019.0
20260831195159 84 232 0.0 0.0 0.00 0.00 0.00 81 1018.9
20260831194155 84 297 0.0 1.0 0.00 0.00 0.00 80 1019.1
20260831193150 85 234 0.0 0.0 0.00 0.00 0.00 78 1019.0
20260831192146 85 228 1.0 1.0 0.00 0.00 0.00 78 1019.1
20260831191144 86 226 0.0 0.0 0.00 0.00 0.00 77 1019.4
20260831190144 86 224 0.0 0.0 0.00 0.00 0.00 78 1019.4
20260831185141 85 209 0.0 0.0 0.00 0.00 0.00 77 1019.5
20260831184137 85 211 0.0 0.0 0.00 0.00 0.00 75 1019.6
20260831183136 84 221 0.0 0.0 0.00 0.00 0.00 76 1019.4
20260831182131 86 224 0.0 0.0 0.00 0.00 0.00 75 1019.5
20260831181131 87 300 2.0 2.0 0.00 0.00 0.00 76 1019.6
20260831180127 84 221 0.0 0.0 0.00 0.00 0.00 80 1019.5
20260831175125 84 209 0.0 0.0 0.00 0.00 0.00 79 1019.7
20260831174125 84 145 1.0 1.0 0.00 0.00 0.00 81 1019.6
20260831173120 85 189 0.0 1.0 0.00 0.00 0.00 82 1019.6
20260831172120 85 222 0.0 0.0 0.00 0.00 0.00 81 1019.8
20260831171118 85 239 0.0 0.0 0.00 0.00 0.00 76 1019.9
20260831170117 85 225 0.0 1.0 0.00 0.00 0.00 78 1019.9
20260831165115 83 221 0.0 0.0 0.00 0.00 0.00 79 1019.9
20260831164112 85 142 2.0 2.0 0.00 0.00 0.00 81 1020.0
20260831163108 83 237 1.0 2.0 0.00 0.00 0.00 80 1020.2
20260831162106 84 164 0.0 0.0 0.00 0.00 0.00 80 1020.2
20260831161104 84 178 0.0 1.0 0.00 0.00 0.00 80 1020.2
20260831160059 83 268 0.0 0.0 0.00 0.00 0.00 82 1020.5
20260831155054 84 253 3.0 3.0 0.00 0.00 0.00 79 1020.4
20260831154050 83 282 3.0 3.0 0.00 0.00 0.00 81 1020.3
20260831153047 82 223 1.0 1.0 0.00 0.00 0.00 82 1020.1
20260831152043 83 236 1.0 2.0 0.00 0.00 0.00 83 1020.4
20260831151042 83 288 5.0 6.0 0.00 0.00 0.00 82 1020.2
20260831150040 84 189 1.0 1.0 0.00 0.00 0.00 79 1020.3
20260831145036 83 345 1.0 2.0 0.00 0.00 0.00 83 1020.4
20260831144032 81 228 1.0 1.0 0.00 0.00 0.00 85 1020.2
20260831143028 82 231 1.0 1.0 0.00 0.00 0.00 84 1020.3
20260831142026 81 316 1.0 1.0 0.00 0.00 0.00 85 1020.4
20260831141026 81 105 1.0 1.0 0.00 0.00 0.00 84 1020.3
20260831140026 81 227 0.0 0.0 0.00 0.00 0.00 86 1020.1
20260831135025 77 256 0.0 0.0 0.00 0.00 0.00 94 1020.1
20260831134020 75 242 0.0 0.0 0.00 0.00 0.00 99 1020.4
20260831133016 74 235 0.0 0.0 0.00 0.00 0.00 99 1020.2
20260831132011 73 233 0.0 0.0 0.00 0.00 0.00 99 1020.4
20260831131008 73 238 0.0 0.0 0.00 0.00 0.00 99 1020.2
20260831130002 73 290 0.0 0.0 0.00 0.00 0.00 99 1020.1
20260831124958 72 5 0.0 0.0 0.00 0.00 0.00 99 1020.2
20260831123955 72 270 0.0 0.0 0.00 0.00 0.00 99 1020.1
20260831122955 71 215 0.0 0.0 0.00 0.00 0.00 99 1020.2
20260831121951 72 23 0.0 0.0 0.00 0.00 0.00 99 1020.3
20260831120948 72 220 0.0 0.0 0.00 0.00 0.00 99 1020.0
20260831115943 71 266 0.0 0.0 0.00 0.00 0.00 99 1020.0
20260831114939 70 217 0.0 0.0 0.00 0.00 0.00 99 1019.9
20260831113933 69 226 0.0 0.0 0.00 0.00 0.00 99 1020.0
20260831112928 69 237 0.0 0.0 0.00 0.00 0.00 99 1019.7
20260831111923 69 222 0.0 0.0 0.00 0.00 0.00 99 1019.5
20260831110921 69 224 0.0 0.0 0.00 0.00 0.00 99 1019.8